QPF
0.00 0.00 0.00 0.00 0.00 0.00 0.00 0.00 0.00 0.00 0.00 0.00 0.00 0.00 0.00 0.00 0.00 0.00 0.00 0.00 0.00 0.00 0.00 0.00 0.00 0.00 0.00 0.00 0.00 0.00 0.00 0.00 0.00 0.00 0.00 0.00 0.00 0.00 0.00 0.00 0.00 0.00 0.00 0.00
0.00 0.00 0.00 0.00 0.00 0.00 0.00 0.00 0.00 0.00 0.00 0.00 0.00 0.00 0.00 0.00 0.00 0.00 0.00 0.00 0.00 0.00 0.00 0.00 0.00 0.00 0.00 0.00 0.00 0.00 0.00 0.00 0.00 0.00 0.00 0.00 0.00 0.00 0.00 0.00 0.00 0.00 0.00 0.00
0.00 0.00 0.00 0.00 0.00 0.00 0.00 0.00 0.00 0.00 0.00 0.00 0.00 0.00 0.00 0.00 0.00 0.00 0.00 0.00 0.00 0.00 0.00 0.00 0.00 0.00 0.00 0.00 0.00 0.00 0.00 0.00 0.00 0.00 0.00 0.00 0.00 0.00 0.00 0.00 0.00 0.00 0.00 0.00
0.00 0.00 0.00 0.00 0.00 0.00 0.00 0.00 0.00 0.00 0.00 0.00 0.00 0.00 0.00 0.00 0.00 0.00 0.00 0.00 0.00 0.00 0.00 0.00 0.00 0.00 0.00 0.00 0.00 0.00 0.00 0.00 0.00 0.00 0.00 0.00 0.00 0.00 0.00 0.00 0.00 0.00 0.00 0.00
0.00 0.00 0.00 0.00 0.00 0.00 0.00 0.00 0.00 0.00 0.00 0.00 0.00 0.00 0.00 0.00 0.00 0.00 0.00 0.00 0.00 0.00 0.00 0.00 0.00 0.00 0.00 0.00 0.00 0.00 0.00 0.00 0.00 0.00 0.00 0.00 0.00 0.00 0.00 0.00 0.00 0.00 0.00 0.00
0.00 0.00 0.00 0.00 0.00 0.00 0.00 0.00 0.00 0.00 0.00 0.00 0.00 0.00 0.00 0.00 0.00 0.00 0.00 0.00 0.00 0.00 0.00 0.00 0.00 0.00 0.00 0.00 0.00 0.00 0.00 0.00 0.00 0.00 0.00 0.00 0.00 0.00 0.00 0.00 0.00 0.00 0.00 0.00
0.00 0.00 0.00 0.00 0.00 0.00 0.00 0.00 0.00 0.00 0.00 0.00 0.00 0.00 0.00 0.00 0.00 0.00 0.00 0.00 0.00 0.00 0.00 0.00 0.00 0.00 0.00 0.00 0.00 0.00 0.00 0.00 0.00 0.00 0.00 0.00 0.00 0.00 0.00 0.00 0.00 0.00 0.00 0.00
0.00 0.00 0.00 0.00 0.00 0.00 0.00 0.00 0.00 0.00 0.00 0.00 0.00 0.00 0.00 0.00 0.00 0.00 0.00 0.00 0.00 0.00 0.00 0.00 0.00 0.00 0.00 0.00 0.00 0.00 0.00 0.00 0.00 0.00 0.00 0.00 0.00 0.00 0.00 0.00 0.00 0.00 0.00 0.00
0.00 0.00 0.00 0.00 0.00 0.00 0.00 0.00 0.00 0.00 0.00 0.00 0.00 0.00 0.00 0.00 0.00 0.00 0.00 0.00 0.00 0.00 0.00 0.00 0.00 0.00 0.00 0.00 0.00 0.00 0.00 0.00 0.00 0.00 0.00 0.00 0.00 0.00 0.00 0.00 0.00 0.00 0.00 0.00
0.00 0.00 0.00 0.00 0.00 0.00 0.00 0.00 0.00 0.00 0.00 0.00 0.00 0.00 0.00 0.00 0.00 0.00 0.00 0.00 0.00 0.00 0.00 0.00 0.00 0.00 0.00 0.00 0.00 0.00 0.00 0.00 0.00 0.00 0.00 0.00 0.00 0.00 0.00 0.00 0.00 0.00 0.00 0.00
0.00 0.00 0.00 0.00 0.00 0.00 0.00 0.00 0.00 0.00 0.00 0.00 0.00 0.00 0.00 0.00 0.00 0.00 0.00 0.00 0.00 0.00 0.00 0.00 0.00 0.00 0.00 0.00 0.00 0.00 0.00 0.00 0.00 0.00 0.00 0.00 0.00 0.00 0.00 0.00 0.00 0.00 0.00 0.00
0.00 0.00 0.00 0.00 0.00 0.00 0.00 0.00 0.00 0.00 0.00 0.00 0.00 0.00 0.00 0.00 0.00 0.00 0.00 0.00 0.00 0.00 0.00 0.00 0.00 0.00 0.00 0.00 0.00 0.00 0.00 0.00 0.00 0.00 0.00 0.00 0.00 0.00 0.00 0.00 0.00 0.00 0.00 0.00
0.00 0.00 0.00 0.00 0.00 0.00 0.00 0.00 0.00 0.00 0.00 0.00 0.00 0.00 0.00 0.00 0.00 0.00 0.00 0.00 0.00 0.00 0.00 0.00 0.00 0.00 0.00 0.00 0.00 0.00 0.00 0.00 0.00 0.00 0.00 0.00 0.00 0.00 0.00 0.00 0.00 0.00 0.00 0.00
0.00 0.00 0.00 0.00 0.00 0.00 0.00 0.00 0.00 0.00 0.00 0.00 0.00 0.00 0.00 0.00 0.00 0.00 0.00 0.00 0.00 0.00 0.00 0.00 0.00 0.00 0.00 0.00 0.00 0.00 0.00 0.00 0.00 0.00 0.00 0.00 0.00 0.00 0.00 0.00 0.00 0.00 0.00 0.00
0.00 0.00 0.00 0.00 0.00 0.00 0.00 0.00 0.00 0.00 0.00 0.00 0.00 0.00 0.00 0.00 0.00 0.00 0.00 0.00 0.00 0.00 0.00 0.00 0.00 0.00 0.00 0.00 0.00 0.00 0.00 0.00 0.00 0.00 0.00 0.00 0.00 0.00 0.00 0.00 0.00 0.00 0.00 0.00
0.00 0.00 0.00 0.00 0.00 0.00 0.00 0.00 0.00 0.00 0.00 0.00 0.00 0.00 0.00 0.00 0.00 0.00 0.00 0.00 0.00 0.00 0.00 0.00 0.00 0.00 0.00 0.00 0.00 0.00 0.00 0.00 0.00 0.00 0.00 0.00 0.00 0.00 0.00 0.00 0.00 0.00 0.00 0.00
0.00 0.00 0.00 0.00 0.00 0.00 0.00 0.00 0.00 0.00 0.00 0.00 0.00 0.00 0.00 0.00 0.00 0.00 0.00 0.00 0.00 0.00 0.00 0.00 0.00 0.00 0.00 0.00 0.00 0.00 0.00 0.00 0.00 0.00 0.00 0.00 0.00 0.00 0.00 0.00 0.00 0.00 0.00 0.00
0.00 0.00 0.00 0.00 0.00 0.00 0.00 0.00 0.00 0.00 0.00 0.00 0.00 0.00 0.00 0.00 0.00 0.00 0.00 0.00 0.00 0.00 0.00 0.00 0.00 0.00 0.00 0.00 0.00 0.00 0.00 0.00 0.00 0.00 0.00 0.00 0.00 0.00 0.00 0.00 0.00 0.00 0.00 0.00
0.00 0.00 0.00 0.00 0.00 0.00 0.00 0.00 0.00 0.00 0.00 0.00 0.00 0.00 0.00 0.00 0.00 0.00 0.00 0.00 0.00 0.00 0.00 0.00 0.00 0.00 0.00 0.00 0.00 0.00 0.00 0.00 0.00 0.00 0.00 0.00 0.00 0.00 0.00 0.00 0.00 0.00 0.00 0.00
0.00 0.00 0.00 0.00 0.00 0.00 0.00 0.00 0.00 0.00 0.00 0.00 0.00 0.00 0.00 0.00 0.00 0.00 0.00 0.00 0.00 0.00 0.00 0.00 0.00 0.00 0.00 0.00 0.00 0.00 0.00 0.00 0.00 0.00 0.00 0.00 0.00 0.00 0.00 0.00 0.00 0.00 0.00 0.00
0.00 0.00 0.00 0.00 0.00 0.00 0.00 0.00 0.00 0.00 0.00 0.00 0.00 0.00 0.00 0.00 0.00 0.00 0.00 0.00 0.00 0.00 0.00 0.00 0.00 0.00 0.00 0.00 0.00 0.00 0.00 0.00 0.00 0.01 0.00 0.00 0.00 0.00 0.00 0.00 0.00 0.00 0.00 0.00
0.00 0.00 0.00 0.00 0.00 0.00 0.00 0.00 0.00 0.00 0.00 0.00 0.00 0.00 0.00 0.00 0.00 0.00 0.00 0.00 0.00 0.00 0.00 0.00 0.00 0.00 0.00 0.00 0.00 0.00 0.00 0.00 0.00 0.00 0.00 0.00 0.00 0.00 0.00 0.00 0.00 0.00 0.00 0.00
0.00 0.00 0.00 0.00 0.00 0.00 0.00 0.00 0.00 0.00 0.00 0.00 0.00 0.00 0.00 0.00 0.00 0.00 0.00 0.00 0.00 0.00 0.00 0.00 0.00 0.00 0.00 0.00 0.00 0.00 0.00 0.00 0.00 0.00 0.00 0.00 0.00 0.00 0.00 0.00 0.00 0.00 0.00 0.00
0.00 0.00 0.00 0.00 0.00 0.00 0.00 0.00 0.00 0.00 0.00 0.00 0.00 0.00 0.00 0.00 0.00 0.00 0.00 0.00 0.00 0.00 0.00 0.00 0.00 0.00 0.00 0.00 0.00 0.00 0.00 0.00 0.00 0.00 0.00 0.00 0.01 0.01 0.00 0.00 0.00 0.00 0.00 0.00
0.00 0.00 0.00 0.00 0.00 0.00 0.00 0.00 0.00 0.00 0.00 0.00 0.00 0.00 0.00 0.00 0.00 0.00 0.00 0.00 0.00 0.00 0.00 0.00 0.00 0.00 0.00 0.00 0.00 0.00 0.00 0.00 0.00 0.00 0.00 0.00 0.00 0.01 0.01 0.01 0.00 0.00 0.00 0.00
0.00 0.00 0.00 0.00 0.00 0.00 0.00 0.00 0.00 0.00 0.00 0.00 0.00 0.00 0.00 0.00 0.00 0.00 0.00 0.00 0.00 0.00 0.00 0.00 0.00 0.00 0.00 0.00 0.00 0.00 0.00 0.00 0.00 0.00 0.00 0.00 0.00 0.00 0.00 0.00 0.00 0.00 0.00 0.00
0.00 0.00 0.00 0.00 0.00 0.00 0.00 0.00 0.00 0.00 0.00 0.00 0.00 0.00 0.00 0.00 0.00 0.00 0.00 0.00 0.00 0.00 0.00 0.00 0.00 0.00 0.00 0.00 0.00 0.00 0.00 0.00 0.00 0.00 0.00 0.00 0.00 0.00 0.00 0.00 0.00 0.00 0.00 0.00
MSLP
1017.60 1017.58 1017.35 1017.13 1017.16 1017.44 1017.55 1017.51 1017.50 1016.69 1016.58 1016.02 1016.22 1016.62 1017.42 1018.47 1019.35 1020.01 1020.72 1021.38 1021.83 1022.28 1022.79 1023.05 1023.39 1023.92 1024.38 1024.64 1025.04 1025.33 1025.42 1025.51 1025.68 1025.91 1026.00 1026.00 1025.85 1025.71 1025.51 1025.32 1025.01 1024.90 1024.92 1024.90
1018.63 1018.51 1018.19 1017.67 1017.23 1017.31 1017.34 1017.25 1016.99 1016.68 1016.04 1015.68 1016.16 1016.87 1017.64 1018.25 1019.09 1019.74 1020.40 1020.99 1021.50 1022.02 1022.44 1022.77 1023.23 1023.66 1024.20 1024.69 1025.01 1025.21 1025.27 1025.35 1025.57 1025.72 1025.86 1025.74 1025.65 1025.54 1025.34 1025.09 1024.73 1024.64 1024.83 1024.93
1019.55 1019.27 1018.63 1017.96 1016.33 1016.31 1016.34 1016.19 1015.93 1016.07 1015.04 1015.96 1016.45 1016.92 1017.20 1017.90 1018.67 1019.26 1019.89 1020.57 1021.14 1021.63 1022.02 1022.49 1023.02 1023.61 1024.18 1024.52 1024.79 1025.01 1025.12 1025.17 1025.36 1025.60 1025.56 1025.54 1025.46 1025.27 1025.04 1024.90 1024.76 1024.73 1024.82 1025.00
1020.52 1020.05 1018.72 1016.05 1015.71 1015.72 1015.74 1015.34 1015.34 1015.19 1015.39 1015.83 1016.28 1016.75 1017.14 1017.59 1018.16 1018.86 1019.59 1020.19 1020.75 1021.29 1021.87 1022.47 1023.06 1023.69 1024.15 1024.35 1024.62 1024.79 1024.90 1025.06 1025.24 1025.23 1025.22 1025.24 1025.19 1024.97 1024.77 1024.63 1024.54 1024.53 1024.70 1024.95
1021.10 1020.29 1018.26 1015.84 1015.51 1015.59 1015.45 1014.52 1014.28 1014.78 1015.45 1016.21 1016.89 1017.10 1017.01 1017.38 1017.76 1018.21 1019.01 1019.75 1020.48 1021.10 1021.84 1022.62 1023.11 1023.56 1024.00 1024.29 1024.50 1024.69 1024.82 1024.86 1024.90 1025.02 1025.00 1024.97 1024.79 1024.67 1024.53 1024.30 1024.26 1024.40 1024.63 1024.89
1021.37 1020.34 1018.31 1015.97 1015.27 1015.15 1015.24 1014.78 1014.05 1014.51 1015.41 1016.28 1016.88 1017.09 1016.34 1016.62 1017.36 1018.25 1019.11 1019.87 1020.60 1021.45 1022.21 1022.83 1023.28 1023.66 1023.90 1024.09 1024.36 1024.47 1024.57 1024.60 1024.75 1024.86 1024.74 1024.62 1024.60 1024.40 1024.24 1024.07 1024.03 1024.25 1024.53 1024.86
1021.01 1019.74 1017.75 1015.81 1015.57 1015.42 1015.51 1015.06 1014.45 1014.70 1015.22 1016.20 1016.52 1016.06 1016.26 1016.50 1017.58 1018.47 1019.33 1020.21 1021.14 1022.11 1022.51 1022.97 1023.33 1023.62 1023.90 1024.13 1024.15 1024.32 1024.53 1024.63 1024.48 1024.39 1024.28 1024.19 1024.16 1024.14 1024.01 1023.89 1024.06 1024.35 1024.58 1024.81
1020.71 1019.32 1017.26 1015.67 1015.79 1015.65 1014.76 1014.48 1014.59 1014.88 1015.07 1015.53 1015.48 1016.12 1016.63 1017.20 1017.92 1018.83 1019.70 1020.63 1021.44 1021.99 1022.62 1023.16 1023.31 1023.58 1023.76 1023.87 1024.02 1024.30 1024.39 1024.30 1024.16 1024.14 1023.93 1023.79 1023.68 1023.70 1023.78 1023.88 1024.00 1024.28 1024.56 1024.61
1018.64 1016.91 1015.70 1015.45 1014.96 1014.60 1014.73 1014.83 1014.78 1015.09 1015.25 1015.80 1016.09 1016.56 1017.32 1018.08 1018.93 1019.88 1020.76 1020.78 1021.33 1022.33 1022.90 1023.21 1023.46 1023.65 1023.69 1023.76 1024.06 1024.13 1024.10 1023.81 1023.63 1023.70 1023.71 1023.56 1023.42 1023.22 1023.34 1023.56 1023.75 1023.89 1024.03 1024.02
1017.63 1015.63 1015.34 1015.16 1014.81 1014.70 1014.66 1014.75 1014.75 1014.92 1015.18 1015.64 1016.07 1017.01 1017.90 1018.61 1019.34 1020.11 1020.74 1021.67 1021.54 1022.18 1022.81 1023.14 1023.43 1023.58 1023.68 1023.90 1024.05 1023.96 1023.62 1023.44 1023.41 1023.45 1023.28 1023.14 1023.17 1023.05 1023.00 1023.15 1023.33 1023.48 1023.54 1023.55
1016.69 1015.46 1015.00 1014.59 1014.59 1014.48 1014.46 1014.55 1014.71 1014.99 1015.28 1015.63 1016.31 1017.27 1018.18 1019.25 1020.22 1020.89 1021.30 1021.97 1021.90 1022.48 1023.16 1023.31 1023.51 1023.61 1023.68 1023.70 1023.73 1023.58 1023.54 1023.34 1023.13 1023.13 1022.95 1022.70 1022.68 1022.64 1022.75 1022.84 1022.97 1023.03 1023.04 1023.17
1015.35 1014.65 1014.93 1014.62 1014.44 1014.52 1014.64 1014.67 1014.81 1015.20 1015.76 1016.21 1016.67 1017.72 1018.89 1020.01 1020.61 1021.54 1021.74 1022.11 1022.58 1023.01 1023.27 1023.35 1023.44 1023.54 1023.63 1023.48 1023.24 1023.21 1023.10 1023.06 1022.84 1022.64 1022.52 1022.36 1022.21 1022.16 1022.52 1022.59 1022.70 1022.79 1022.81 1022.93
1015.30 1015.02 1014.97 1014.69 1014.74 1014.81 1015.00 1015.15 1015.41 1015.98 1016.69 1017.36 1018.18 1018.49 1019.39 1020.57 1021.28 1021.56 1021.98 1022.44 1022.66 1022.87 1023.08 1023.25 1023.30 1023.37 1023.41 1023.51 1023.32 1022.89 1022.71 1022.78 1022.48 1022.16 1022.02 1021.93 1021.85 1021.84 1021.76 1021.77 1022.07 1022.14 1022.18 1022.24
1015.62 1015.45 1015.29 1015.48 1015.81 1015.88 1016.17 1016.65 1016.96 1017.48 1017.94 1018.66 1019.79 1020.36 1020.43 1021.49 1021.73 1021.94 1022.12 1022.34 1022.64 1022.85 1022.99 1023.07 1023.02 1022.86 1022.92 1023.16 1022.85 1022.67 1022.50 1022.14 1022.05 1021.63 1021.43 1021.38 1021.32 1021.29 1021.31 1021.31 1021.24 1021.30 1021.46 1021.64
1016.64 1016.46 1016.69 1017.05 1017.12 1017.35 1017.65 1018.07 1018.70 1019.62 1020.26 1020.70 1021.03 1021.39 1021.43 1021.79 1022.02 1022.06 1022.39 1022.70 1022.81 1022.83 1022.72 1022.49 1022.51 1022.50 1022.66 1022.68 1022.34 1022.18 1021.94 1021.62 1021.58 1021.31 1021.13 1020.95 1020.79 1020.74 1020.76 1020.69 1020.65 1020.70 1020.82 1021.06
1018.08 1017.91 1018.09 1018.34 1018.84 1019.23 1019.64 1020.24 1020.42 1021.02 1021.50 1021.97 1022.09 1022.19 1022.09 1022.18 1022.34 1022.41 1022.40 1022.53 1022.76 1022.43 1022.20 1022.16 1022.34 1022.20 1022.29 1022.09 1021.83 1021.55 1021.36 1021.14 1020.98 1020.62 1020.36 1020.24 1020.20 1020.05 1019.97 1019.95 1019.95 1020.01 1020.02 1020.12
1018.76 1019.46 1019.87 1020.16 1020.53 1020.91 1021.26 1021.82 1022.21 1022.53 1022.68 1022.63 1022.47 1022.43 1022.66 1022.74 1022.84 1022.79 1022.66 1022.59 1022.48 1022.16 1022.12 1022.07 1021.78 1021.68 1021.67 1021.44 1021.22 1020.80 1020.62 1020.42 1020.32 1020.03 1019.63 1019.56 1019.46 1019.23 1019.13 1019.24 1019.25 1019.23 1019.19 1019.33
1020.17 1020.63 1021.14 1021.44 1021.88 1022.04 1022.30 1022.46 1022.57 1022.63 1022.79 1022.86 1022.90 1023.02 1023.15 1023.18 1023.07 1022.75 1022.55 1022.42 1022.28 1022.04 1021.69 1021.35 1021.18 1021.15 1021.03 1020.76 1020.52 1020.23 1019.95 1019.68 1019.51 1019.26 1018.97 1018.74 1018.56 1018.44 1018.30 1018.34 1018.38 1018.43 1018.40 1018.51
1021.53 1021.67 1021.87 1021.94 1022.11 1022.27 1022.51 1022.70 1022.80 1022.98 1023.14 1023.22 1023.29 1023.33 1023.17 1023.00 1022.92 1022.70 1022.60 1022.50 1022.12 1021.46 1020.41 1020.46 1020.41 1020.46 1020.35 1020.17 1020.02 1019.61 1019.35 1019.03 1018.74 1018.53 1018.24 1017.97 1017.81 1017.63 1017.58 1017.56 1017.57 1017.59 1017.62 1017.66
1022.32 1022.40 1022.52 1022.64 1022.68 1022.91 1023.14 1023.21 1023.38 1023.27 1023.34 1023.41 1023.49 1023.54 1023.28 1022.81 1022.67 1022.41 1022.30 1022.02 1021.64 1020.81 1020.00 1019.90 1019.85 1019.84 1019.75 1019.54 1019.35 1019.00 1018.72 1018.38 1018.02 1017.73 1017.51 1017.29 1017.16 1016.92 1016.74 1016.70 1016.70 1016.70 1016.68 1016.64
1022.95 1022.99 1023.06 1023.16 1023.24 1023.39 1023.47 1023.43 1023.56 1023.50 1023.52 1023.62 1023.66 1023.38 1023.11 1022.64 1022.28 1022.01 1021.78 1021.20 1020.09 1019.79 1019.58 1019.41 1019.38 1019.29 1019.18 1019.07 1018.88 1018.53 1018.18 1017.79 1017.40 1017.01 1016.71 1016.55 1016.39 1016.20 1015.98 1015.76 1015.63 1015.58 1015.47 1015.37
1023.35 1023.43 1023.52 1023.66 1023.75 1023.80 1023.75 1023.74 1023.80 1023.87 1023.87 1023.76 1023.51 1023.32 1023.06 1022.40 1021.96 1021.44 1021.11 1020.76 1019.44 1019.35 1019.26 1018.85 1018.60 1018.49 1018.55 1018.55 1018.32 1018.03 1017.64 1017.12 1016.69 1016.44 1016.09 1015.85 1015.69 1015.43 1015.16 1014.91 1014.71 1014.47 1014.29 1014.10
1023.69 1023.83 1024.00 1024.12 1024.28 1024.42 1024.41 1024.44 1024.43 1024.31 1024.17 1023.93 1023.59 1023.02 1022.58 1022.04 1021.74 1021.19 1020.07 1019.62 1019.59 1019.24 1018.96 1018.48 1018.18 1018.10 1017.97 1017.85 1017.65 1017.34 1017.08 1016.72 1016.31 1015.92 1015.56 1015.30 1014.94 1014.65 1014.40 1014.08 1013.76 1013.49 1013.21 1012.95
1024.21 1024.38 1024.61 1024.80 1024.93 1024.87 1024.88 1024.95 1024.98 1024.78 1024.38 1023.96 1023.64 1023.06 1022.61 1021.81 1020.97 1020.84 1020.32 1019.66 1019.15 1018.71 1018.28 1017.88 1017.60 1017.44 1017.43 1017.36 1017.28 1017.12 1016.94 1016.77 1016.53 1016.22 1015.86 1015.34 1014.75 1014.06 1013.52 1013.19 1012.88 1012.60 1012.31 1011.96
1025.08 1025.35 1025.50 1025.49 1025.60 1025.88 1025.92 1025.86 1025.40 1024.94 1024.53 1024.17 1023.69 1023.06 1022.61 1021.97 1021.49 1020.18 1019.77 1019.16 1018.58 1017.95 1017.52 1017.34 1017.32 1017.39 1017.36 1017.53 1017.63 1017.63 1017.57 1017.40 1017.20 1016.86 1016.38 1015.88 1015.25 1014.53 1013.73 1012.78 1012.17 1011.84 1011.46 1011.07
1026.00 1026.19 1026.34 1026.54 1026.80 1026.86 1026.91 1026.66 1026.24 1025.78 1025.31 1024.54 1024.03 1023.54 1022.92 1022.29 1021.31 1020.31 1019.43 1018.71 1018.02 1017.31 1016.91 1017.03 1017.47 1017.66 1017.80 1017.94 1017.97 1017.96 1017.91 1017.87 1017.80 1017.60 1017.30 1016.78 1016.20 1015.53 1014.76 1013.89 1012.91 1011.67 1010.68 1010.18
1027.09 1027.30 1027.25 1027.35 1027.66 1027.79 1027.74 1027.53 1027.11 1026.60 1026.14 1025.50 1024.71 1024.03 1023.27 1022.51 1021.68 1020.74 1019.83 1019.02 1018.26 1017.75 1017.88 1018.21 1018.42 1018.50 1018.60 1018.64 1018.67 1018.61 1018.56 1018.51 1018.54 1018.33 1017.95 1017.51 1016.97 1016.24 1015.39 1014.42 1013.36 1011.95 1010.52 1009.67
Thickness
5596 5597 5603 5609 5607 5603 5606 5604 5604 5610 5603 5613 5614 5611 5602 5589 5578 5570 5560 5550 5543 5534 5524 5516 5508 5498 5487 5479 5469 5459 5450 5442 5432 5423 5413 5404 5394 5383 5373 5360 5348 5334 5319 5303
5592 5590 5591 5599 5604 5603 5600 5598 5599 5596 5605 5610 5606 5597 5589 5583 5573 5564 5554 5545 5536 5525 5517 5510 5499 5489 5477 5466 5457 5448 5440 5431 5421 5411 5400 5391 5380 5368 5356 5345 5333 5319 5301 5285
5586 5575 5583 5587 5609 5608 5604 5603 5609 5599 5619 5600 5594 5588 5588 5577 5566 5558 5549 5538 5528 5518 5511 5502 5489 5476 5466 5456 5446 5436 5428 5419 5410 5399 5388 5377 5365 5353 5342 5329 5314 5298 5283 5270
5576 5557 5579 5616 5610 5608 5605 5606 5604 5604 5601 5595 5590 5582 5577 5569 5561 5550 5540 5530 5520 5510 5500 5488 5476 5464 5452 5444 5435 5425 5417 5408 5398 5387 5376 5363 5350 5338 5326 5313 5297 5284 5270 5259
5572 5570 5584 5612 5602 5601 5597 5611 5609 5601 5591 5579 5568 5568 5569 5558 5554 5547 5534 5522 5511 5499 5487 5474 5464 5452 5442 5433 5424 5414 5406 5396 5385 5373 5361 5348 5337 5324 5310 5297 5284 5272 5260 5250
5537 5567 5572 5598 5599 5597 5594 5586 5601 5593 5581 5568 5562 5560 5570 5555 5544 5532 5521 5508 5495 5482 5470 5460 5450 5440 5431 5423 5413 5404 5393 5382 5370 5358 5347 5336 5322 5310 5296 5284 5273 5261 5250 5241
5518 5560 5569 5587 5586 5584 5575 5580 5580 5579 5573 5556 5559 5564 5554 5543 5530 5518 5505 5492 5477 5465 5457 5447 5436 5427 5419 5410 5401 5390 5378 5367 5357 5346 5336 5324 5310 5296 5283 5273 5261 5250 5241 5232
5513 5539 5561 5575 5574 5570 5578 5573 5570 5566 5562 5556 5557 5542 5533 5524 5514 5502 5488 5475 5464 5454 5443 5431 5424 5416 5408 5399 5388 5376 5365 5354 5344 5332 5321 5309 5297 5284 5272 5260 5250 5240 5230 5225
5561 5570 5573 5566 5570 5568 5562 5562 5561 5553 5550 5542 5533 5528 5517 5506 5495 5482 5469 5463 5454 5440 5429 5420 5411 5402 5394 5385 5373 5362 5352 5342 5334 5320 5307 5297 5285 5275 5263 5251 5242 5234 5228 5224
5554 5573 5561 5558 5558 5556 5555 5553 5550 5546 5542 5532 5527 5514 5499 5488 5479 5464 5454 5446 5439 5428 5416 5406 5396 5387 5379 5369 5358 5348 5340 5331 5320 5307 5296 5286 5274 5264 5254 5243 5236 5229 5224 5220
5541 5553 5553 5556 5551 5553 5549 5542 5540 5534 5529 5523 5514 5500 5486 5470 5458 5447 5441 5429 5424 5411 5397 5389 5380 5371 5364 5355 5346 5336 5324 5316 5307 5295 5285 5276 5266 5256 5246 5237 5230 5225 5221 5216
5546 5556 5550 5550 5547 5542 5539 5536 5531 5523 5512 5505 5498 5484 5468 5453 5442 5432 5424 5413 5403 5392 5383 5375 5366 5357 5348 5341 5333 5324 5315 5304 5294 5284 5275 5266 5258 5249 5238 5230 5224 5218 5214 5210
5543 5539 5537 5537 5532 5528 5526 5520 5514 5504 5494 5483 5473 5465 5451 5435 5423 5416 5407 5396 5389 5381 5371 5360 5350 5341 5332 5321 5315 5310 5302 5290 5283 5274 5266 5258 5249 5240 5234 5228 5220 5216 5212 5209
5526 5524 5528 5520 5516 5507 5500 5493 5486 5478 5470 5459 5444 5433 5427 5414 5407 5401 5394 5385 5374 5364 5355 5346 5337 5329 5319 5307 5303 5297 5287 5279 5272 5266 5259 5250 5242 5235 5229 5224 5220 5216 5211 5207
5507 5507 5501 5491 5488 5483 5478 5471 5459 5446 5436 5427 5421 5414 5409 5402 5393 5385 5374 5364 5357 5350 5343 5337 5326 5316 5304 5297 5293 5285 5277 5270 5261 5256 5249 5242 5235 5230 5225 5221 5218 5214 5209 5204
5483 5482 5477 5471 5463 5456 5448 5439 5430 5420 5412 5404 5401 5395 5390 5381 5373 5367 5362 5353 5342 5338 5332 5322 5309 5304 5295 5290 5283 5276 5269 5260 5253 5250 5244 5238 5231 5227 5224 5220 5216 5213 5209 5206
5473 5458 5449 5442 5435 5429 5422 5414 5406 5399 5392 5388 5383 5376 5369 5361 5353 5347 5342 5334 5325 5320 5314 5307 5301 5295 5286 5280 5273 5268 5262 5255 5247 5242 5239 5234 5230 5227 5224 5219 5215 5212 5209 5206
5443 5435 5427 5421 5414 5407 5402 5396 5391 5385 5378 5370 5360 5354 5347 5340 5337 5331 5327 5319 5310 5304 5298 5299 5291 5284 5276 5270 5264 5260 5254 5248 5243 5238 5235 5232 5229 5226 5224 5220 5216 5211 5208 5204
5421 5416 5411 5406 5401 5395 5388 5380 5372 5362 5354 5349 5344 5340 5332 5327 5322 5317 5309 5300 5294 5294 5299 5287 5279 5271 5265 5259 5252 5250 5245 5241 5237 5232 5230 5228 5226 5224 5221 5218 5215 5211 5207 5203
5402 5397 5391 5384 5377 5369 5362 5356 5350 5349 5344 5336 5327 5321 5316 5312 5305 5302 5296 5293 5284 5284 5284 5277 5269 5262 5255 5249 5243 5240 5236 5233 5231 5227 5225 5223 5221 5220 5218 5214 5211 5209 5205 5202
5378 5374 5368 5362 5357 5349 5342 5337 5332 5331 5324 5313 5311 5310 5304 5301 5297 5290 5284 5282 5284 5275 5269 5263 5257 5251 5245 5239 5233 5229 5226 5224 5222 5221 5220 5218 5217 5215 5213 5212 5210 5207 5205 5203
5361 5355 5344 5338 5335 5333 5328 5324 5318 5312 5307 5301 5296 5288 5285 5285 5279 5277 5270 5263 5271 5261 5256 5253 5248 5242 5235 5229 5224 5220 5218 5216 5215 5212 5213 5213 5211 5210 5210 5209 5208 5206 5204 5203
5345 5340 5334 5327 5321 5317 5312 5307 5300 5295 5290 5285 5280 5278 5274 5271 5264 5259 5267 5261 5251 5247 5242 5240 5236 5230 5225 5220 5216 5213 5209 5207 5206 5205 5206 5205 5206 5205 5205 5205 5205 5204 5203 5202
5331 5324 5318 5311 5304 5301 5297 5290 5284 5280 5275 5272 5266 5258 5253 5254 5257 5244 5241 5240 5237 5234 5231 5228 5224 5220 5214 5210 5205 5201 5198 5195 5192 5191 5191 5193 5195 5198 5200 5200 5200 5199 5198 5198
5308 5303 5297 5293 5288 5281 5276 5272 5270 5268 5264 5258 5252 5245 5238 5234 5228 5235 5228 5225 5223 5222 5220 5215 5209 5203 5199 5193 5188 5183 5179 5177 5175 5174 5175 5177 5179 5182 5186 5191 5193 5193 5193 5193
5291 5286 5280 5275 5268 5262 5255 5251 5248 5243 5238 5237 5232 5224 5219 5214 5213 5214 5214 5213 5211 5210 5207 5200 5191 5185 5179 5174 5170 5166 5163 5160 5158 5156 5156 5157 5159 5161 5165 5169 5174 5182 5187 5188
5271 5265 5262 5256 5248 5240 5232 5226 5222 5217 5211 5208 5207 5201 5198 5196 5194 5194 5194 5193 5192 5190 5182 5174 5167 5162 5157 5153 5149 5146 5144 5141 5138 5137 5137 5139 5140 5144 5148 5152 5158 5167 5175 5179